GFSWCAN_sfc_thetae_204.txt.gz
Theta_e
313 313 314 313 312 311 310 311 311 312 312 312 312 312 312 312 310 305 302 306 300 295 296 299 298 294 294 293 289 292 290 290 287 283 284 283 284 286 286 287 282 282 283 284 284 284 287 312 312 306 309 315 319 323
312 313 313 312 311 311 310 311 312 312 312 312 312 312 312 311 311 307 300 307 305 296 295 299 299 300 298 297 291 290 289 289 290 289 287 286 285 288 285 284 294 287 289 286 290 290 306 312 310 317 317 315 321 325
312 312 312 310 309 311 311 311 312 312 312 311 312 312 311 312 310 307 302 303 301 295 294 290 292 299 301 301 298 289 292 296 296 298 291 287 283 287 284 286 289 291 297 294 294 300 304 309 314 317 319 320 326 327
310 310 310 310 309 310 311 311 312 312 311 311 312 312 311 312 309 307 302 304 301 296 290 289 299 296 303 302 300 297 296 300 298 294 289 285 285 289 286 289 289 296 298 299 297 302 307 310 310 312 316 325 324 325
309 309 309 309 310 311 311 312 312 311 312 312 312 311 311 311 308 306 304 304 304 296 288 289 295 298 302 299 300 300 298 295 292 290 287 285 289 290 293 292 292 299 295 294 295 304 305 306 311 317 314 321 320 321
310 309 310 309 310 311 312 312 311 311 312 312 311 311 310 309 308 304 296 302 305 302 293 286 294 297 301 302 299 295 295 296 293 290 289 290 297 295 290 290 296 300 301 303 301 305 305 312 315 317 315 321 322 322
309 309 309 309 310 311 311 310 310 311 311 310 310 309 308 308 303 296 295 301 306 303 293 286 286 299 302 301 299 297 296 294 293 291 290 290 295 297 293 289 296 300 303 306 307 306 306 310 310 316 316 320 321 323
309 310 309 309 310 311 310 310 311 310 310 309 308 307 308 308 305 298 303 305 305 296 295 287 285 291 301 296 296 299 295 297 296 293 293 292 297 298 291 294 298 300 301 304 305 307 309 312 315 315 317 315 321 321
309 309 309 309 309 310 310 310 311 310 309 309 308 308 304 302 298 299 308 307 306 297 290 290 280 281 298 297 300 299 299 292 298 294 292 296 291 288 293 295 296 298 299 300 302 305 307 311 313 314 314 313 316 319
310 309 309 309 309 310 309 310 311 310 310 309 307 303 297 298 310 308 302 297 293 297 295 290 294 288 292 297 296 295 296 292 289 293 296 292 291 296 297 298 298 299 300 302 300 301 303 306 309 312 314 315 316 321
309 309 309 309 308 310 310 310 310 310 309 305 302 301 305 310 302 296 292 291 292 289 291 291 293 292 299 295 294 296 290 288 286 291 290 290 289 293 297 298 302 304 305 304 304 305 306 308 310 312 314 315 318 318
308 308 309 309 309 310 311 310 310 305 307 307 305 308 305 300 296 291 288 290 286 287 293 292 294 297 299 301 296 296 289 291 287 294 290 286 291 296 298 300 301 306 309 309 308 308 310 312 313 315 315 317 319 318
308 308 309 309 309 310 310 311 309 308 307 309 305 303 299 300 290 291 289 290 291 292 293 298 295 295 296 296 293 292 290 289 295 287 286 289 294 297 299 300 302 305 307 309 310 313 314 313 314 315 314 317 317 316
308 308 308 309 310 311 310 310 311 308 305 303 305 289 297 294 296 294 295 296 299 297 297 296 294 292 293 292 293 289 291 291 286 282 283 289 294 297 300 301 301 302 304 304 305 307 310 310 310 311 312 313 313 311
307 308 308 308 312 311 311 310 311 307 305 305 302 291 299 301 299 298 301 300 302 302 298 295 294 293 291 289 288 288 287 286 286 283 289 293 296 297 298 300 301 302 303 303 303 303 304 307 308 308 309 309 309 308
308 308 312 313 311 310 309 310 310 309 309 307 305 298 300 301 300 298 297 296 303 301 301 299 293 292 289 289 287 284 284 281 284 292 295 296 297 297 297 300 301 303 303 302 302 303 305 305 305 305 308 307 305 304
307 308 312 309 308 309 309 309 307 308 312 305 301 303 301 300 299 300 298 298 299 296 291 292 289 287 291 287 284 287 284 289 293 295 296 297 298 298 298 298 301 303 304 302 304 302 301 303 306 305 304 305 305 303
305 312 310 308 308 308 313 310 315 312 303 305 301 302 303 303 301 300 302 301 297 294 293 291 293 289 287 285 285 289 290 293 295 294 294 296 297 296 298 295 298 298 298 303 304 304 302 302 302 304 305 305 304 302
305 306 308 308 308 305 312 317 318 304 305 305 304 304 305 304 307 305 304 301 300 300 297 295 291 289 289 291 290 290 291 292 292 295 295 298 296 296 294 294 294 294 295 295 295 298 301 301 300 302 301 301 298 298
307 308 309 310 309 309 313 314 314 307 305 306 306 307 307 307 308 308 304 303 301 299 296 293 292 293 293 295 296 294 294 295 292 289 290 294 297 296 293 292 291 291 291 292 293 294 293 293 292 298 299 299 297 297
310 315 314 310 308 309 312 312 308 308 307 306 306 308 306 309 307 306 305 309 300 297 295 298 298 298 298 298 299 300 297 297 294 291 290 291 294 295 292 292 291 291 290 290 290 290 292 290 291 294 298 296 296 298
309 313 313 313 315 318 314 316 309 310 307 308 308 309 306 305 302 303 305 305 300 300 301 300 300 300 299 300 300 300 300 299 300 294 295 295 292 292 291 290 290 289 289 289 289 289 289 290 292 292 295 295 297 295
309 311 311 314 313 304 302 312 305 307 303 307 309 305 306 303 305 308 303 303 303 305 304 303 304 305 303 304 304 303 301 299 295 293 293 293 292 292 291 290 289 289 289 289 289 289 288 291 292 291 292 292 291 291
312 310 310 311 307 298 308 306 308 306 306 304 304 304 305 303 306 302 300 302 305 306 305 305 304 303 304 303 302 302 302 296 295 294 293 292 290 290 290 289 289 289 289 288 289 288 288 289 291 290 291 291 291 289
301 302 303 293 306 307 305 304 305 304 302 303 304 303 304 307 301 299 298 301 305 306 307 308 307 306 306 304 304 299 296 296 294 293 292 293 290 290 289 289 289 288 289 289 288 288 288 289 289 290 291 290 290 290
292 304 299 306 304 301 301 301 303 304 303 303 306 309 307 300 299 298 301 301 305 306 306 307 306 302 299 300 298 296 296 296 294 292 290 291 290 290 288 287 286 287 289 289 288 289 289 289 290 290 289 290 290 290
292 300 305 311 308 306 305 306 307 306 303 302 305 306 302 297 297 299 306 308 307 308 308 304 303 302 300 298 297 298 297 295 294 292 291 291 291 291 290 288 287 288 290 291 290 290 289 290 289 289 289 289 289 290
304 304 300 300 302 307 304 304 303 302 305 307 306 304 304 301 300 304 306 310 312 308 303 302 303 304 300 295 295 296 294 295 294 293 291 291 290 291 291 291 290 293 290 290 290 290 290 290 289 289 289 288 288 290
305 306 303 300 302 303 305 305 305 305 310 308 305 303 305 308 311 311 313 314 313 306 303 300 298 299 298 296 293 292 292 292 291 289 287 286 286 287 289 290 289 290 290 289 291 290 289 290 290 289 289 289 289 289
305 308 303 304 301 301 304 308 309 311 313 313 313 312 308 310 311 313 312 310 308 307 306 303 301 298 296 294 291 290 291 291 291 290 287 286 287 288 290 290 290 290 290 290 290 291 292 291 291 290 290 290 289 289
311 308 305 305 303 306 308 309 310 311 313 311 312 309 308 311 314 315 311 313 311 311 309 305 300 300 296 294 292 290 288 289 291 291 291 290 290 290 291 291 290 290 290 291 290 290 289 289 289 289 289 289 290 290
310 308 306 303 304 307 309 309 309 308 307 308 307 311 311 309 306 311 314 312 310 309 305 298 296 293 296 298 295 292 292 291 291 291 291 291 291 291 291 291 291 292 291 291 291 290 290 290 289 289 289 290 290 290
307 308 308 305 304 305 310 309 308 307 307 307 309 311 312 312 309 315 318 316 314 310 300 298 296 296 296 296 293 291 290 288 289 289 289 290 290 291 290 290 292 293 292 292 291 291 291 291 291 291 291 291 291 292

GFSWCAN_sfc_thetae_207.txt.gz
Theta_e
313 313 313 312 310 311 311 311 312 312 313 312 312 312 313 312 309 305 303 306 300 294 295 298 299 294 293 293 289 293 291 289 286 282 282 281 282 286 284 286 287 281 281 282 282 282 285 310 311 304 310 314 316 322
311 311 311 310 310 311 311 312 312 312 312 312 312 312 312 312 309 306 299 306 305 296 291 296 298 300 298 296 292 290 289 288 289 287 284 284 283 286 283 282 291 288 291 290 287 287 303 309 309 312 313 312 318 321
310 310 310 309 310 311 311 312 313 312 312 312 312 312 311 312 309 306 302 300 299 291 290 289 292 297 296 298 297 288 290 293 292 292 287 285 282 286 281 284 286 289 296 294 295 297 301 309 311 312 314 313 320 323
309 310 310 309 310 311 312 312 312 312 312 312 312 311 311 310 309 306 301 303 297 291 287 288 297 295 299 298 297 295 293 297 297 293 289 285 283 288 284 286 285 294 298 293 297 300 301 306 306 309 314 316 318 322
309 310 310 310 310 311 311 311 311 312 312 312 311 311 311 309 308 305 304 303 303 294 286 286 294 298 299 297 299 298 295 293 291 289 287 285 286 288 289 290 288 297 294 291 292 298 300 301 307 310 314 314 315 320
309 310 310 310 310 311 311 311 311 312 311 311 310 310 310 309 307 300 292 298 304 301 292 283 292 296 301 301 297 296 294 296 294 289 287 288 291 295 286 286 296 299 301 302 298 305 305 306 311 314 315 315 314 322
309 310 309 309 310 310 310 310 311 310 310 310 310 309 308 308 299 294 293 299 305 302 291 285 285 296 303 302 299 298 295 292 292 289 288 291 294 296 293 289 295 299 300 301 304 306 302 305 305 310 316 317 316 322
309 309 309 309 310 310 310 310 310 310 309 309 308 308 308 307 305 296 299 304 304 296 295 285 286 291 301 296 296 302 296 296 294 290 291 289 296 295 291 294 296 298 298 299 303 304 303 306 309 313 315 316 314 317
309 309 310 309 309 309 309 310 310 309 309 309 308 308 303 299 298 297 307 307 304 298 289 290 286 284 298 298 297 298 298 291 298 292 293 296 291 289 292 293 295 297 297 297 300 302 303 304 307 310 313 313 314 314
308 309 309 309 308 309 310 309 310 309 309 309 307 303 299 297 309 307 301 297 294 297 293 289 293 289 293 296 294 293 294 290 289 293 297 290 290 295 296 297 299 300 300 300 297 297 301 304 306 308 311 312 317 318
308 308 309 309 309 308 309 309 309 309 308 304 302 301 305 309 299 292 288 287 289 287 290 292 291 289 298 293 293 295 289 287 285 289 290 289 288 292 298 299 301 304 305 304 302 301 301 304 304 306 311 311 317 317
308 308 308 309 309 309 309 309 309 304 305 306 305 307 304 296 295 292 289 289 287 285 292 289 292 295 297 301 295 295 290 291 286 295 289 284 290 295 298 299 301 304 308 309 310 306 305 308 310 310 313 314 316 315
308 308 308 308 308 308 308 309 309 307 307 308 304 302 299 298 289 292 290 289 289 293 291 293 292 292 293 294 291 290 288 288 294 286 285 288 294 297 299 300 301 304 305 305 308 311 311 311 312 312 312 314 313 311
307 307 308 308 308 309 310 310 310 307 304 302 303 289 294 292 293 295 297 297 297 294 294 293 291 290 290 290 288 287 289 289 285 283 283 288 292 294 296 301 302 302 303 303 304 306 307 308 307 308 308 309 308 307
307 307 308 308 309 311 310 310 310 308 304 300 302 288 295 298 299 298 298 296 299 298 296 293 292 291 289 287 285 285 284 281 282 280 287 292 294 295 296 298 301 302 303 303 304 303 304 305 305 305 305 305 305 304
307 308 310 309 309 309 309 310 310 307 306 304 303 298 298 296 296 296 296 294 299 297 298 296 290 288 287 286 285 283 280 280 282 288 291 293 294 295 294 295 298 301 303 303 302 302 304 305 304 304 304 303 302 303
307 306 309 308 308 308 309 307 306 304 305 306 301 300 299 298 298 297 297 296 300 295 289 290 287 285 288 285 281 284 282 287 290 291 292 293 293 293 293 294 295 298 301 303 303 301 302 303 304 303 300 302 301 301
305 308 309 307 307 308 309 307 308 311 306 305 301 300 301 301 300 300 300 299 296 293 292 290 290 287 284 283 283 287 288 290 293 293 292 293 294 293 292 291 292 293 293 295 299 297 298 299 299 298 299 300 298 298
305 306 307 307 307 303 306 311 311 305 303 302 302 301 305 304 308 306 303 299 298 297 296 292 289 287 287 288 288 289 289 290 291 293 292 293 295 293 291 291 290 290 290 290 289 289 290 291 294 296 300 299 295 295
307 308 310 310 308 305 309 311 314 304 302 304 303 304 304 304 306 305 302 301 299 298 295 292 290 291 291 292 292 291 291 292 289 287 287 290 294 291 289 289 288 287 288 288 288 291 288 288 289 290 300 296 294 295
308 313 312 309 307 307 308 307 308 308 305 304 304 304 305 305 302 302 302 304 299 298 294 296 295 294 295 295 296 294 293 294 293 290 288 289 292 290 288 288 288 288 287 287 286 287 288 287 288 289 294 294 294 293
307 311 311 311 311 313 309 312 308 306 304 303 304 304 303 301 301 301 303 301 299 299 298 298 297 296 296 297 297 297 297 296 296 292 293 293 290 288 287 287 288 287 286 286 286 286 286 287 288 289 290 290 293 293
307 309 309 310 311 304 304 311 307 304 301 302 303 301 301 302 304 306 301 302 302 303 302 300 300 300 299 299 300 300 298 297 292 290 290 290 289 288 287 287 287 287 286 286 285 285 286 289 289 289 290 290 290 289
308 308 308 309 306 298 306 303 305 303 304 304 304 303 303 304 304 300 298 300 303 303 301 301 302 301 301 300 302 302 298 293 291 290 289 290 287 286 286 287 287 287 287 286 285 286 287 287 289 288 289 289 288 288
301 301 303 293 306 306 305 302 303 301 299 301 302 301 304 303 297 296 295 297 302 303 303 303 302 302 300 301 304 298 294 293 291 290 289 289 287 286 286 286 286 286 286 286 286 287 287 287 287 288 289 288 287 287
293 303 300 307 303 300 300 300 301 302 302 302 305 304 302 298 296 294 297 298 301 304 305 306 305 302 301 301 297 293 293 292 291 289 287 288 289 288 285 285 284 285 286 286 286 287 288 288 288 288 288 288 289 288
293 299 304 309 306 304 302 303 304 304 304 303 304 301 301 299 297 298 301 304 304 306 306 305 306 303 299 295 295 295 293 290 291 290 289 288 289 289 288 286 285 286 287 289 288 288 288 288 287 287 287 287 288 288
304 304 299 300 300 303 302 303 302 302 302 303 304 301 301 301 299 303 304 307 308 306 302 301 300 301 298 296 295 293 292 290 289 288 288 287 287 287 288 288 288 290 288 289 288 288 288 288 287 287 287 287 287 288
302 305 302 298 300 300 301 303 303 304 305 303 302 302 304 306 309 307 309 310 304 303 300 297 294 296 293 291 292 294 293 292 289 286 285 284 284 286 287 287 288 288 288 287 290 290 288 289 288 288 288 288 288 288
302 306 302 301 297 297 300 304 306 308 308 311 310 309 306 306 310 311 310 305 302 301 301 299 297 297 294 292 290 289 288 289 291 290 286 284 285 287 287 288 288 288 288 288 288 288 291 290 290 289 289 288 288 288
305 304 303 302 301 303 305 306 306 310 308 306 308 306 305 308 310 313 311 308 305 304 299 296 295 296 293 293 293 291 288 287 289 289 288 288 287 288 288 289 288 288 288 289 289 288 288 288 288 288 288 288 288 289
305 305 305 302 303 307 307 306 305 305 305 305 306 307 306 306 304 310 313 310 307 305 302 299 297 295 295 296 294 293 290 288 288 289 289 288 288 289 289 288 289 290 290 289 289 289 289 290 289 288 288 288 289 289
305 307 307 305 303 303 304 306 304 303 306 306 306 305 307 307 305 309 315 309 309 308 302 298 297 295 296 296 294 293 291 289 289 290 290 290 290 289 288 288 290 291 291 290 290 289 289 290 289 290 290 289 289 289

GFSWCAN_sfc_thetae_210.txt.gz
Theta_e
310 310 310 310 310 311 311 312 313 313 313 313 313 313 313 312 309 303 302 305 300 293 295 297 299 294 290 291 288 293 291 291 288 284 281 280 280 285 283 285 283 280 281 281 282 281 281 306 308 301 306 311 313 317
310 310 310 310 311 311 312 312 312 312 313 313 313 312 312 311 309 306 297 305 303 295 291 294 296 298 296 294 290 290 288 288 288 285 284 284 282 284 282 280 289 286 289 287 288 285 304 305 308 311 311 312 313 313
310 310 309 310 310 311 312 312 312 312 312 312 312 311 311 311 309 306 301 302 298 289 288 288 290 294 294 296 297 287 289 291 290 289 285 283 282 284 280 283 285 289 296 293 293 299 298 302 307 310 311 314 315 316
310 310 310 310 310 311 311 311 312 312 312 312 311 311 312 310 309 306 299 302 297 290 286 288 297 293 297 296 296 294 292 295 292 290 286 283 282 286 282 285 284 291 296 292 293 299 298 305 303 307 312 315 315 315
310 309 310 310 310 311 311 310 311 312 312 311 311 311 310 309 307 302 299 299 299 293 286 287 293 296 299 297 297 295 292 291 291 287 285 284 285 287 287 289 289 294 291 292 291 298 298 298 305 309 310 313 314 313
309 309 309 309 310 311 311 310 311 311 310 310 310 310 310 308 306 296 292 297 301 298 289 285 292 294 302 298 297 293 292 293 292 288 287 288 291 292 285 288 295 298 300 301 297 302 301 304 307 310 309 313 315 316
309 309 309 309 309 310 310 310 310 310 309 309 309 309 308 307 297 293 291 296 304 300 289 286 287 297 302 301 299 298 296 293 292 289 288 289 291 295 291 288 294 298 299 300 302 301 300 304 302 306 311 314 317 318
308 309 309 310 309 309 310 309 310 309 309 309 308 308 308 307 305 295 297 305 301 295 296 287 288 292 302 296 295 300 296 295 293 290 289 289 296 289 289 294 295 297 299 299 300 302 301 302 304 307 313 314 314 317
308 308 309 309 309 309 309 309 310 309 309 309 308 308 306 302 297 300 307 308 303 298 290 290 286 286 298 297 296 296 297 290 295 292 293 293 291 287 292 293 294 296 297 298 300 300 300 301 303 307 310 311 311 315
309 308 308 309 309 308 309 310 310 309 308 309 306 303 299 299 308 308 302 297 295 297 295 289 293 289 294 294 291 292 294 290 289 292 295 287 289 295 295 296 298 300 301 301 298 297 299 299 304 305 307 312 312 315
309 309 308 309 309 309 308 309 309 308 307 304 302 302 304 308 301 291 290 287 289 285 288 291 292 289 298 293 291 294 288 287 285 289 290 288 286 290 297 299 302 304 306 304 304 302 301 301 302 303 306 311 315 314
310 309 308 308 308 308 308 308 309 303 301 304 305 307 304 297 294 292 289 289 287 284 291 288 290 291 294 299 294 293 291 290 284 294 288 285 290 296 298 298 301 304 304 306 309 306 304 306 308 307 311 313 312 313
310 309 308 308 308 308 308 307 309 307 307 307 304 302 300 296 287 288 287 288 289 290 290 291 290 291 292 292 289 289 288 287 293 286 284 288 293 297 298 299 301 304 304 304 305 307 308 307 308 308 308 309 308 307
309 309 308 308 308 309 309 308 309 308 303 301 302 292 293 290 292 293 293 293 295 293 291 291 290 289 288 288 287 285 287 288 284 282 284 288 292 295 297 299 302 302 303 303 304 304 303 303 303 305 305 306 304 303
309 308 308 308 309 310 310 309 310 307 303 300 303 289 293 297 297 297 296 294 297 296 294 291 290 290 287 286 284 284 283 278 282 278 285 290 293 294 294 296 300 302 303 302 303 304 304 304 302 302 303 303 304 303
309 308 310 309 309 309 309 309 309 308 305 302 302 297 297 295 296 295 294 294 298 296 296 294 289 287 285 285 284 283 279 279 283 286 289 291 292 292 292 294 299 301 301 301 302 303 303 304 302 303 303 302 302 301
308 307 309 308 308 308 309 308 306 302 302 304 302 302 297 296 299 297 296 295 299 295 289 289 286 286 287 284 281 283 283 286 289 291 291 292 292 291 291 292 296 300 299 299 298 300 301 302 303 302 300 299 299 299
306 312 309 307 307 308 308 308 305 304 302 305 302 300 298 299 299 300 299 296 296 292 291 290 289 285 284 284 283 286 288 289 291 291 291 292 293 292 292 290 291 291 291 291 292 292 293 296 299 298 298 299 298 296
308 309 309 308 306 304 303 307 307 304 306 302 300 300 300 301 303 304 303 297 296 296 294 291 289 286 286 287 288 288 288 289 291 292 292 292 293 291 292 291 291 290 289 289 288 288 289 290 292 297 300 298 297 296
308 308 309 310 308 303 304 308 312 306 301 302 302 302 301 302 303 302 299 298 297 297 294 291 290 290 290 291 291 291 291 291 289 287 288 291 292 290 290 289 289 288 288 288 288 290 288 289 290 291 297 297 296 296
307 311 312 308 305 305 306 305 306 308 304 302 302 302 301 303 301 301 300 301 297 296 294 294 294 293 293 294 294 292 292 292 291 291 289 290 292 289 288 288 288 288 287 287 287 287 288 288 288 290 293 293 293 296
308 311 311 311 308 310 307 309 306 305 303 302 302 302 301 300 300 300 301 300 298 298 297 296 296 295 294 295 297 297 297 295 295 292 292 293 288 287 287 288 288 287 287 287 287 287 287 289 290 292 293 293 294 293
307 307 308 309 309 303 302 312 308 305 302 301 302 300 299 301 303 304 300 300 301 301 299 299 298 298 297 298 299 299 298 297 295 291 291 290 288 288 288 288 288 287 287 287 286 287 288 289 291 291 292 292 291 291
307 306 307 309 306 297 304 302 305 302 304 302 300 298 300 303 303 299 298 299 302 301 299 300 301 299 300 300 298 299 299 294 290 289 289 288 287 287 288 288 288 288 288 287 287 288 289 290 290 290 291 291 290 290
300 300 301 293 307 306 304 302 301 300 299 302 301 300 300 304 297 296 295 297 300 302 300 301 302 301 299 299 300 300 294 292 291 289 289 288 287 286 286 287 287 287 288 288 289 289 289 290 290 291 291 290 290 290
292 302 298 307 305 302 299 299 300 300 300 302 304 302 301 298 297 295 297 299 300 303 302 302 302 301 300 301 301 297 295 292 291 290 289 288 289 289 287 286 286 287 288 288 289 289 290 290 290 291 290 290 289 290
292 297 303 310 308 306 301 301 302 301 302 301 301 300 299 296 297 300 301 302 301 305 307 307 306 305 303 301 298 295 292 291 292 291 290 289 289 290 289 287 287 288 289 290 290 291 290 290 290 289 289 290 290 290
302 304 299 304 304 306 300 301 301 301 302 304 303 300 300 300 300 305 305 306 307 307 304 304 305 305 301 298 294 291 288 288 289 289 289 288 288 289 289 290 291 289 291 291 291 291 291 290 290 290 290 290 291 292
300 303 302 300 301 301 301 300 299 302 305 305 302 301 304 307 308 308 308 310 303 302 300 299 294 294 293 291 291 291 291 292 290 288 287 286 287 288 289 289 290 291 291 291 290 291 292 291 291 291 292 291 292 292
299 303 300 301 298 296 298 302 304 307 307 308 309 307 306 306 309 312 309 303 302 303 304 302 297 296 293 292 289 289 289 290 292 290 288 287 287 289 289 290 290 290 290 291 292 292 291 292 292 293 292 292 292 291
305 302 300 301 301 301 303 303 305 307 309 307 307 305 306 308 310 311 310 305 301 301 298 297 296 295 294 292 291 290 289 290 290 291 290 290 289 289 290 290 291 291 291 291 291 291 291 291 291 291 291 291 292 291
304 302 302 301 303 306 306 303 303 304 305 305 305 308 308 305 303 307 310 303 300 298 297 298 297 294 295 294 295 294 293 294 290 291 290 289 290 291 291 290 291 292 292 291 291 291 291 291 291 291 291 291 292 292
304 306 305 305 304 304 303 303 303 304 305 305 306 305 305 305 304 308 310 306 305 302 300 298 298 297 296 295 294 293 292 293 291 289 289 289 289 289 290 291 292 293 293 292 292 292 292 292 291 292 292 292 292 292

GFSWCAN_sfc_thetae_213.txt.gz
Theta_e
310 310 311 310 311 312 312 312 312 312 314 313 313 313 313 311 309 308 305 308 303 296 297 298 299 296 297 295 291 294 295 294 294 290 289 289 288 290 290 292 292 289 289 288 290 288 287 306 309 302 306 310 311 314
310 310 310 311 311 312 312 312 312 312 313 313 312 312 312 310 309 307 303 309 307 301 297 300 302 303 302 300 298 296 293 293 295 292 293 293 291 293 291 286 297 292 295 294 293 294 304 306 306 309 309 307 314 315
310 309 310 310 311 311 311 312 312 312 312 312 311 312 312 310 309 307 306 305 304 298 298 297 298 301 303 303 305 296 297 297 297 299 296 294 289 295 289 291 293 295 299 296 297 302 304 306 307 307 308 309 314 318
310 309 310 310 311 310 310 311 312 312 312 311 311 312 310 309 308 307 305 306 302 298 293 295 301 299 302 302 302 303 301 302 302 300 296 293 291 295 293 292 293 297 299 297 298 302 305 307 308 306 307 310 315 318
310 310 309 310 310 311 311 310 311 311 311 310 310 311 309 308 306 307 307 306 306 298 293 295 299 301 305 302 300 301 300 299 300 298 295 293 296 295 296 295 293 300 296 295 295 301 302 304 308 307 306 308 310 318
309 309 309 310 310 310 310 310 311 310 310 310 310 311 309 308 306 305 300 306 308 305 296 292 298 298 303 301 300 299 298 299 299 297 296 297 298 298 292 291 297 300 302 302 299 304 304 305 306 308 306 306 310 317
309 308 309 309 309 310 310 309 310 310 309 309 309 309 308 308 306 301 299 304 307 306 297 292 293 297 304 304 303 301 300 299 298 298 296 296 298 299 294 288 296 300 301 302 303 303 301 305 304 308 306 308 314 320
310 309 309 309 309 309 309 309 310 309 309 309 308 308 308 308 306 302 305 307 305 302 299 289 290 294 301 297 298 304 301 300 300 298 298 295 297 291 289 293 295 299 301 301 303 304 304 304 305 306 308 311 313 316
311 309 309 308 309 309 308 309 310 309 309 309 309 309 307 306 302 303 307 308 307 301 293 292 287 287 299 296 298 298 299 294 301 296 294 293 289 286 291 291 293 296 297 300 303 304 304 303 303 304 307 310 312 314
312 311 309 309 309 309 309 308 309 309 308 309 308 304 301 303 308 308 303 299 299 298 296 294 297 290 294 294 292 294 295 292 289 292 294 288 289 294 294 294 295 298 300 301 299 301 303 301 303 305 306 308 312 315
311 312 311 309 309 308 309 308 309 308 307 307 305 304 306 309 304 299 295 293 293 292 295 296 297 295 298 292 292 294 289 289 285 290 290 288 288 290 297 299 301 304 305 308 305 305 306 307 306 306 307 310 314 313
311 311 311 311 309 308 308 308 308 308 307 308 307 308 306 302 299 294 294 291 288 292 296 297 299 300 300 303 296 294 293 292 286 297 291 286 291 297 299 299 301 304 304 304 306 306 307 308 310 308 310 311 311 311
310 310 310 309 308 308 309 308 308 307 308 309 305 303 302 301 291 294 293 298 297 296 298 299 299 302 300 301 299 296 291 291 298 290 287 291 297 299 301 301 301 304 303 301 302 304 304 303 305 306 304 305 305 305
310 310 308 308 310 309 309 308 309 308 306 303 303 293 298 297 298 300 301 302 304 302 300 302 300 300 299 297 297 291 295 295 287 284 286 294 298 299 300 303 303 303 303 301 300 301 302 303 302 303 304 304 303 302
310 310 309 310 309 310 310 308 309 309 304 300 303 293 299 305 305 305 305 302 303 304 303 300 300 300 297 294 295 293 289 286 288 288 294 299 301 301 301 302 304 304 305 305 305 303 302 302 302 301 302 303 304 303
310 309 310 309 309 309 309 309 309 308 305 302 302 301 307 303 305 303 303 302 305 304 303 304 299 295 293 294 291 289 288 286 292 297 299 302 302 301 301 304 306 306 304 304 306 305 305 303 302 302 303 302 302 301
309 309 308 308 309 309 309 308 306 303 301 302 304 308 307 306 306 307 306 303 307 304 298 298 292 291 295 291 290 293 292 295 299 299 301 303 303 301 301 302 305 306 302 300 300 301 305 306 306 303 301 301 301 302
311 312 308 307 308 309 309 308 305 304 301 306 306 311 307 309 307 309 307 305 306 300 299 296 297 293 290 287 290 296 298 301 301 302 302 302 304 303 302 300 299 299 299 298 299 299 299 301 304 304 304 303 301 300
312 313 310 309 307 305 303 306 307 304 309 312 310 308 308 311 311 312 309 305 304 304 300 298 295 292 293 297 297 298 299 300 302 303 303 304 304 302 301 300 299 298 298 297 297 296 296 298 298 302 307 306 301 300
309 308 309 310 308 304 304 308 312 309 310 309 309 308 310 311 313 311 306 304 304 303 300 298 298 299 299 301 301 301 302 301 300 298 298 301 303 301 300 300 299 299 298 297 297 294 296 297 298 299 302 303 303 300
308 310 310 309 307 306 307 309 309 312 313 309 309 310 310 311 310 309 307 306 304 303 301 302 303 304 304 305 303 302 302 303 301 302 302 300 301 299 298 298 298 298 297 296 295 294 295 296 298 300 302 301 303 300
310 311 310 310 309 310 307 312 308 312 309 309 309 310 309 309 309 309 309 306 306 307 306 305 304 303 303 304 304 303 305 305 305 301 296 298 298 296 296 297 297 296 296 295 295 294 296 298 300 301 301 300 299 299
308 308 308 310 307 304 305 317 312 314 307 308 310 307 307 308 310 310 307 309 309 311 307 307 307 307 307 308 307 306 306 306 305 305 301 301 299 298 298 297 297 296 295 295 296 297 297 293 297 299 298 299 298 297
307 306 306 307 303 299 310 306 311 309 308 307 306 304 306 309 310 307 304 308 311 309 306 306 305 303 304 306 305 305 307 307 305 301 301 298 296 296 297 296 296 296 297 296 296 297 298 297 293 296 296 295 295 294
300 300 300 292 307 307 307 307 305 305 303 306 305 306 307 310 305 303 303 306 308 308 307 307 307 306 303 304 306 307 308 305 301 299 298 299 297 295 295 295 296 296 297 295 295 296 296 297 296 295 294 294 294 294
293 301 298 305 305 304 305 301 304 304 304 304 306 308 308 305 301 302 305 307 307 311 308 307 307 307 307 309 308 308 306 303 302 300 298 298 298 297 295 294 293 293 296 296 296 295 295 296 295 294 294 294 291 293
293 299 303 310 309 306 304 307 306 304 304 304 307 305 304 300 301 308 311 310 310 313 314 312 311 310 310 310 310 307 304 302 303 303 301 299 299 300 298 295 294 296 297 296 296 296 295 295 294 294 294 295 296 296
300 303 299 304 304 307 303 304 303 303 305 309 308 303 302 304 307 315 313 313 313 315 315 314 314 314 313 312 307 301 299 298 297 298 297 297 298 298 298 298 299 290 298 298 297 297 297 296 296 295 295 295 297 298
303 307 305 301 302 303 303 303 304 306 310 310 308 307 308 314 318 318 315 315 310 311 310 308 305 306 304 303 302 300 298 299 298 296 295 294 295 295 297 298 298 298 298 297 290 292 297 297 297 297 297 297 298 298
304 308 304 304 300 300 304 307 307 312 311 314 315 314 314 315 317 320 315 310 307 311 313 311 306 307 305 303 298 297 299 301 301 299 297 296 296 298 297 297 297 298 298 298 297 298 293 295 296 298 297 298 298 298
307 306 304 304 303 306 308 309 308 310 311 312 313 311 313 315 318 319 316 312 311 312 309 306 306 307 305 303 300 298 297 298 299 300 299 299 298 297 298 298 298 298 298 297 297 297 296 296 297 297 297 297 298 297
305 304 303 302 305 310 310 307 307 306 309 310 311 314 315 313 311 314 314 310 309 308 305 307 307 305 306 306 304 304 295 302 299 299 298 298 298 298 298 298 298 298 298 297 298 297 297 297 297 297 297 298 298 298
306 306 305 305 306 307 308 308 307 307 309 311 312 313 312 312 310 316 316 313 312 310 309 308 310 309 305 304 303 302 297 301 297 292 291 292 292 294 297 298 299 299 298 298 298 298 298 298 298 298 298 298 298 298